カタログに戻る

NOAA 17 DEB

運用中PO
NORAD 48746·DEBRIS·🇺🇸 United States

打ち上げ Jun 24, 2002 から Vandenberg Space Force Base

Loading…

次のパス (今後24時間)

TLE

最新Source: Space-Track

元期: Sep 13, 2026, 21:48 UTC

1 48746U 02032CF  26256.90858331  .00010701  00000-0  22240-2 0  9995
2 48746  98.7496 237.7070 0038148  16.0269 344.2126 14.59824874285579

AllMySatでNOAA 17 DEBをリアルタイム追跡

Download on the App Store